����������;��������(kWh)
2019-01-21 00:00;94,35
2019-01-21 00:15;96,55
2019-01-21 00:30;96,4
2019-01-21 00:45;97
2019-01-21 01:00;95,45
2019-01-21 01:15;94,25
2019-01-21 01:30;94,55
2019-01-21 01:45;94,75
2019-01-21 02:00;95
2019-01-21 02:15;96,8
2019-01-21 02:30;96,25
2019-01-21 02:45;92,05
2019-01-21 03:00;92,4
2019-01-21 03:15;97,6
2019-01-21 03:30;98,8
2019-01-21 03:45;100,95
2019-01-21 04:00;104
2019-01-21 04:15;102,65
2019-01-21 04:30;100,1
2019-01-21 04:45;100
2019-01-21 05:00;103
2019-01-21 05:15;106,55
2019-01-21 05:30;112,75
2019-01-21 05:45;127,5
2019-01-21 06:00;127,4
2019-01-21 06:15;129,15
2019-01-21 06:30;127,1
2019-01-21 06:45;121,95
2019-01-21 07:00;119,5
2019-01-21 07:15;125,4
2019-01-21 07:30;174,35
2019-01-21 07:45;194,45
2019-01-21 08:00;205,4
2019-01-21 08:15;178,45
2019-01-21 08:30;181,4
2019-01-21 08:45;216,05
2019-01-21 09:00;203,5
2019-01-21 09:15;224,7
2019-01-21 09:30;225,85
2019-01-21 09:45;242
2019-01-21 10:00;248,65
2019-01-21 10:15;265,05
2019-01-21 10:30;257,65
2019-01-21 10:45;282,8
2019-01-21 11:00;287,2
2019-01-21 11:15;294,9
2019-01-21 11:30;289,15
2019-01-21 11:45;297,85
2019-01-21 12:00;288,85
2019-01-21 12:15;301,05
2019-01-21 12:30;280,8
2019-01-21 12:45;288,15
2019-01-21 13:00;290,45
2019-01-21 13:15;286,45
2019-01-21 13:30;269,45
2019-01-21 13:45;271,25
2019-01-21 14:00;266,45
2019-01-21 14:15;261,45
2019-01-21 14:30;259,25
2019-01-21 14:45;250,6
2019-01-21 15:00;273,65
2019-01-21 15:15;243,85
2019-01-21 15:30;262,45
2019-01-21 15:45;247,7
2019-01-21 16:00;232,75
2019-01-21 16:15;231,9
2019-01-21 16:30;217,4
2019-01-21 16:45;237
2019-01-21 17:00;219
2019-01-21 17:15;196,45
2019-01-21 17:30;205,9
2019-01-21 17:45;193,5
2019-01-21 18:00;194
2019-01-21 18:15;193,15
2019-01-21 18:30;187
2019-01-21 18:45;187,65
2019-01-21 19:00;183,7
2019-01-21 19:15;170,8
2019-01-21 19:30;164
2019-01-21 19:45;153,65
2019-01-21 20:00;153,15
2019-01-21 20:15;147,15
2019-01-21 20:30;143,5
2019-01-21 20:45;139,3
2019-01-21 21:00;132
2019-01-21 21:15;128,8
2019-01-21 21:30;124,9
2019-01-21 21:45;124,65
2019-01-21 22:00;121
2019-01-21 22:15;119,55
2019-01-21 22:30;108,8
2019-01-21 22:45;110,95
2019-01-21 23:00;115,55
2019-01-21 23:15;109
2019-01-21 23:30;109,9
2019-01-21 23:45;112
2019-01-22 00:00;101,4
2019-01-22 00:15;99,25
2019-01-22 00:30;101,15
2019-01-22 00:45;103,55
2019-01-22 01:00;102,8
2019-01-22 01:15;101,95
2019-01-22 01:30;98,25
2019-01-22 01:45;99,6
2019-01-22 02:00;99,5
2019-01-22 02:15;99,6
2019-01-22 02:30;99,35
2019-01-22 02:45;99,5
2019-01-22 03:00;100,25
2019-01-22 03:15;100,65
2019-01-22 03:30;99,6
2019-01-22 03:45;98,4
2019-01-22 04:00;99,25
2019-01-22 04:15;106,7
2019-01-22 04:30;109,25
2019-01-22 04:45;109,3
2019-01-22 05:00;114,65
2019-01-22 05:15;110,1
2019-01-22 05:30;110,05
2019-01-22 05:45;117
2019-01-22 06:00;132,1
2019-01-22 06:15;132,35
2019-01-22 06:30;131,7
2019-01-22 06:45;132,9
2019-01-22 07:00;127,75
2019-01-22 07:15;133,2
2019-01-22 07:30;180,6
2019-01-22 07:45;199,5
2019-01-22 08:00;151,05
2019-01-22 08:15;158,35
2019-01-22 08:30;169,6
2019-01-22 08:45;170,85
2019-01-22 09:00;208,25
2019-01-22 09:15;207,35
2019-01-22 09:30;226,35
2019-01-22 09:45;212,8
2019-01-22 10:00;241,8
2019-01-22 10:15;231,4
2019-01-22 10:30;253,05
2019-01-22 10:45;253,15
2019-01-22 11:00;269
2019-01-22 11:15;256,8
2019-01-22 11:30;269,05
2019-01-22 11:45;249
2019-01-22 12:00;254,05
2019-01-22 12:15;267,9
2019-01-22 12:30;247,25
2019-01-22 12:45;256,35
2019-01-22 13:00;237,6
2019-01-22 13:15;250
2019-01-22 13:30;245,8
2019-01-22 13:45;242,5
2019-01-22 14:00;246,25
2019-01-22 14:15;239,15
2019-01-22 14:30;250,4
2019-01-22 14:45;228,6
2019-01-22 15:00;220,6
2019-01-22 15:15;222,9
2019-01-22 15:30;217,55
2019-01-22 15:45;210,45
2019-01-22 16:00;213,9
2019-01-22 16:15;195,35
2019-01-22 16:30;196,35
2019-01-22 16:45;200,9
2019-01-22 17:00;181,7
2019-01-22 17:15;187,5
2019-01-22 17:30;170,1
2019-01-22 17:45;177,8
2019-01-22 18:00;186,8
2019-01-22 18:15;184,1
2019-01-22 18:30;184,7
2019-01-22 18:45;184,05
2019-01-22 19:00;178,2
2019-01-22 19:15;173
2019-01-22 19:30;177,45
2019-01-22 19:45;171,85
2019-01-22 20:00;166,9
2019-01-22 20:15;161,95
2019-01-22 20:30;157,6
2019-01-22 20:45;155,25
2019-01-22 21:00;148,3
2019-01-22 21:15;136,95
2019-01-22 21:30;132,15
2019-01-22 21:45;127,9
2019-01-22 22:00;126,55
2019-01-22 22:15;123,15
2019-01-22 22:30;122,9
2019-01-22 22:45;121,85
2019-01-22 23:00;126,4
2019-01-22 23:15;116,9
2019-01-22 23:30;107,35
2019-01-22 23:45;110,75
2019-01-23 00:00;100
2019-01-23 00:15;99,5
2019-01-23 00:30;100,45
2019-01-23 00:45;98,15
2019-01-23 01:00;104,4
2019-01-23 01:15;112,2
2019-01-23 01:30;114,5
2019-01-23 01:45;114,4
2019-01-23 02:00;112,6
2019-01-23 02:15;113,95
2019-01-23 02:30;110,4
2019-01-23 02:45;105,45
2019-01-23 03:00;106,4
2019-01-23 03:15;110,25
2019-01-23 03:30;106,75
2019-01-23 03:45;108,25
2019-01-23 04:00;102,95
2019-01-23 04:15;105,2
2019-01-23 04:30;100,1
2019-01-23 04:45;106,2
2019-01-23 05:00;106,6
2019-01-23 05:15;103,45
2019-01-23 05:30;101,9
2019-01-23 05:45;99,5
2019-01-23 06:00;103,45
2019-01-23 06:15;111,2
2019-01-23 06:30;126,4
2019-01-23 06:45;131,4
2019-01-23 07:00;136,1
2019-01-23 07:15;139,95
2019-01-23 07:30;184,1
2019-01-23 07:45;210,5
2019-01-23 08:00;162,75
2019-01-23 08:15;159,9
2019-01-23 08:30;177,7
2019-01-23 08:45;182
2019-01-23 09:00;218,1
2019-01-23 09:15;211,85
2019-01-23 09:30;240,75
2019-01-23 09:45;231,9
2019-01-23 10:00;255,6
2019-01-23 10:15;243,6
2019-01-23 10:30;271,8
2019-01-23 10:45;265,4
2019-01-23 11:00;283,9
2019-01-23 11:15;275,15
2019-01-23 11:30;283,7
2019-01-23 11:45;272,1
2019-01-23 12:00;267,85
2019-01-23 12:15;263,65
2019-01-23 12:30;251,15
2019-01-23 12:45;261,1
2019-01-23 13:00;247,6
2019-01-23 13:15;253,4
2019-01-23 13:30;264,05
2019-01-23 13:45;245,25
2019-01-23 14:00;251,35
2019-01-23 14:15;255,75
2019-01-23 14:30;250,9
2019-01-23 14:45;253,2
2019-01-23 15:00;237,4
2019-01-23 15:15;226,2
2019-01-23 15:30;233,2
2019-01-23 15:45;203,85
2019-01-23 16:00;213,3
2019-01-23 16:15;196,45
2019-01-23 16:30;212,1
2019-01-23 16:45;193,1
2019-01-23 17:00;186,3
2019-01-23 17:15;199,15
2019-01-23 17:30;178,05
2019-01-23 17:45;176,3
2019-01-23 18:00;188,45
2019-01-23 18:15;188,2
2019-01-23 18:30;185,85
2019-01-23 18:45;184,2
2019-01-23 19:00;179,95
2019-01-23 19:15;179,7
2019-01-23 19:30;178,05
2019-01-23 19:45;181,2
2019-01-23 20:00;165,6
2019-01-23 20:15;147,6
2019-01-23 20:30;145,3
2019-01-23 20:45;142,2
2019-01-23 21:00;138,95
2019-01-23 21:15;138,2
2019-01-23 21:30;133,3
2019-01-23 21:45;125,9
2019-01-23 22:00;119,85
2019-01-23 22:15;116,3
2019-01-23 22:30;111,2
2019-01-23 22:45;112,4
2019-01-23 23:00;118,2
2019-01-23 23:15;116,4
2019-01-23 23:30;114,5
2019-01-23 23:45;112,7
2019-01-24 00:00;102,45
2019-01-24 00:15;101,7
2019-01-24 00:30;105,05
2019-01-24 00:45;100,75
2019-01-24 01:00;98,5
2019-01-24 01:15;99,7
2019-01-24 01:30;106,4
2019-01-24 01:45;108,15
2019-01-24 02:00;109,4
2019-01-24 02:15;107,8
2019-01-24 02:30;107,35
2019-01-24 02:45;106,6
2019-01-24 03:00;105,95
2019-01-24 03:15;105,8
2019-01-24 03:30;98,9
2019-01-24 03:45;96,1
2019-01-24 04:00;99,25
2019-01-24 04:15;98,1
2019-01-24 04:30;95,3
2019-01-24 04:45;97,95
2019-01-24 05:00;99,9
2019-01-24 05:15;97,8
2019-01-24 05:30;99
2019-01-24 05:45;96,65
2019-01-24 06:00;94
2019-01-24 06:15;99,55
2019-01-24 06:30;100,25
2019-01-24 06:45;110,2
2019-01-24 07:00;130,5
2019-01-24 07:15;137,05
2019-01-24 07:30;194,65
2019-01-24 07:45;219,95
2019-01-24 08:00;173,35
2019-01-24 08:15;154,15
2019-01-24 08:30;188,8
2019-01-24 08:45;184,15
2019-01-24 09:00;211,3
2019-01-24 09:15;218,15
2019-01-24 09:30;242,7
2019-01-24 09:45;243
2019-01-24 10:00;258,25
2019-01-24 10:15;265,25
2019-01-24 10:30;271,95
2019-01-24 10:45;275,95
2019-01-24 11:00;274,75
2019-01-24 11:15;293,55
2019-01-24 11:30;287,15
2019-01-24 11:45;295,9
2019-01-24 12:00;274,5
2019-01-24 12:15;270,95
2019-01-24 12:30;261,4
2019-01-24 12:45;267,95
2019-01-24 13:00;257,7
2019-01-24 13:15;265,9
2019-01-24 13:30;284,55
2019-01-24 13:45;260,75
2019-01-24 14:00;261,6
2019-01-24 14:15;273,4
2019-01-24 14:30;258,45
2019-01-24 14:45;256,55
2019-01-24 15:00;234,5
2019-01-24 15:15;234,95
2019-01-24 15:30;240,7
2019-01-24 15:45;212,75
2019-01-24 16:00;229,55
2019-01-24 16:15;216,45
2019-01-24 16:30;194,5
2019-01-24 16:45;210,8
2019-01-24 17:00;198,35
2019-01-24 17:15;207,8
2019-01-24 17:30;177,9
2019-01-24 17:45;185,55
2019-01-24 18:00;183,1
2019-01-24 18:15;177,15
2019-01-24 18:30;174,25
2019-01-24 18:45;162,05
2019-01-24 19:00;164,1
2019-01-24 19:15;162,35
2019-01-24 19:30;162,6
2019-01-24 19:45;160,35
2019-01-24 20:00;155,8
2019-01-24 20:15;152,05
2019-01-24 20:30;136,75
2019-01-24 20:45;130,4
2019-01-24 21:00;130,85
2019-01-24 21:15;130,3
2019-01-24 21:30;123,4
2019-01-24 21:45;115,45
2019-01-24 22:00;116,9
2019-01-24 22:15;113,55
2019-01-24 22:30;115,7
2019-01-24 22:45;115,35
2019-01-24 23:00;121,95
2019-01-24 23:15;115,55
2019-01-24 23:30;119,55
2019-01-24 23:45;118,75
2019-01-25 00:00;107,05
2019-01-25 00:15;106,9
2019-01-25 00:30;108,8
2019-01-25 00:45;107,35
2019-01-25 01:00;99,65
2019-01-25 01:15;99,35
2019-01-25 01:30;99,05
2019-01-25 01:45;99,3
2019-01-25 02:00;107,35
2019-01-25 02:15;113,65
2019-01-25 02:30;110,95
2019-01-25 02:45;111,8
2019-01-25 03:00;114,1
2019-01-25 03:15;112,4
2019-01-25 03:30;107,2
2019-01-25 03:45;122,8
2019-01-25 04:00;137,2
2019-01-25 04:15;136,35
2019-01-25 04:30;128,4
2019-01-25 04:45;124,3
2019-01-25 05:00;121,2
2019-01-25 05:15;114,35
2019-01-25 05:30;113,9
2019-01-25 05:45;115,2
2019-01-25 06:00;112,7
2019-01-25 06:15;111,9
2019-01-25 06:30;110
2019-01-25 06:45;106,85
2019-01-25 07:00;111,45
2019-01-25 07:15;120,35
2019-01-25 07:30;179,35
2019-01-25 07:45;192,55
2019-01-25 08:00;142,45
2019-01-25 08:15;152,2
2019-01-25 08:30;173,8
2019-01-25 08:45;165,05
2019-01-25 09:00;175,1
2019-01-25 09:15;173,45
2019-01-25 09:30;200,1
2019-01-25 09:45;194,8
2019-01-25 10:00;204,3
2019-01-25 10:15;210,5
2019-01-25 10:30;197,25
2019-01-25 10:45;221,5
2019-01-25 11:00;224,85
2019-01-25 11:15;224,2
2019-01-25 11:30;240,55
2019-01-25 11:45;238,2
2019-01-25 12:00;253,1
2019-01-25 12:15;239,45
2019-01-25 12:30;244,65
2019-01-25 12:45;260,65
2019-01-25 13:00;253,45
2019-01-25 13:15;279,05
2019-01-25 13:30;274,8
2019-01-25 13:45;273,4
2019-01-25 14:00;260,9
2019-01-25 14:15;261,95
2019-01-25 14:30;261,35
2019-01-25 14:45;258,4
2019-01-25 15:00;242,3
2019-01-25 15:15;241,85
2019-01-25 15:30;295,15
2019-01-25 15:45;242,15
2019-01-25 16:00;235,45
2019-01-25 16:15;216,05
2019-01-25 16:30;231
2019-01-25 16:45;200,15
2019-01-25 17:00;210,55
2019-01-25 17:15;209,65
2019-01-25 17:30;195,95
2019-01-25 17:45;189,2
2019-01-25 18:00;197,75
2019-01-25 18:15;187,15
2019-01-25 18:30;187
2019-01-25 18:45;184,35
2019-01-25 19:00;172,45
2019-01-25 19:15;171,85
2019-01-25 19:30;167,05
2019-01-25 19:45;163,15
2019-01-25 20:00;160,8
2019-01-25 20:15;150,5
2019-01-25 20:30;144,15
2019-01-25 20:45;143,8
2019-01-25 21:00;140,7
2019-01-25 21:15;133,65
2019-01-25 21:30;127,85
2019-01-25 21:45;118,25
2019-01-25 22:00;108,45
2019-01-25 22:15;107,55
2019-01-25 22:30;106,05
2019-01-25 22:45;104,55
2019-01-25 23:00;110,15
2019-01-25 23:15;105,3
2019-01-25 23:30;108,35
2019-01-25 23:45;111,45
2019-01-26 00:00;100,45
2019-01-26 00:15;102,65
2019-01-26 00:30;100,7
2019-01-26 00:45;98,45
2019-01-26 01:00;99,8
2019-01-26 01:15;99,65
2019-01-26 01:30;100,85
2019-01-26 01:45;99,3
2019-01-26 02:00;98,2
2019-01-26 02:15;94,5
2019-01-26 02:30;91,35
2019-01-26 02:45;91,45
2019-01-26 03:00;90,45
2019-01-26 03:15;91,15
2019-01-26 03:30;90,8
2019-01-26 03:45;90,2
2019-01-26 04:00;90,7
2019-01-26 04:15;87,3
2019-01-26 04:30;88,25
2019-01-26 04:45;89,55
2019-01-26 05:00;85,9
2019-01-26 05:15;85,5
2019-01-26 05:30;86,25
2019-01-26 05:45;89,9
2019-01-26 06:00;86,85
2019-01-26 06:15;85,85
2019-01-26 06:30;84,55
2019-01-26 06:45;85,25
2019-01-26 07:00;86,15
2019-01-26 07:15;87,1
2019-01-26 07:30;84,55
2019-01-26 07:45;83,25
2019-01-26 08:00;82,55
2019-01-26 08:15;83,05
2019-01-26 08:30;86,45
2019-01-26 08:45;88,2
2019-01-26 09:00;87,55
2019-01-26 09:15;88
2019-01-26 09:30;91,65
2019-01-26 09:45;91,65
2019-01-26 10:00;94
2019-01-26 10:15;91,7
2019-01-26 10:30;92,25
2019-01-26 10:45;95,75
2019-01-26 11:00;99,3
2019-01-26 11:15;100,45
2019-01-26 11:30;103,25
2019-01-26 11:45;98,2
2019-01-26 12:00;97,4
2019-01-26 12:15;97
2019-01-26 12:30;102,45
2019-01-26 12:45;102,8
2019-01-26 13:00;106,35
2019-01-26 13:15;108,1
2019-01-26 13:30;108,95
2019-01-26 13:45;114,2
2019-01-26 14:00;116,1
2019-01-26 14:15;118,95
2019-01-26 14:30;111,35
2019-01-26 14:45;111,45
2019-01-26 15:00;112,45
2019-01-26 15:15;110,2
2019-01-26 15:30;111
2019-01-26 15:45;120,25
2019-01-26 16:00;113,1
2019-01-26 16:15;110,75
2019-01-26 16:30;112,95
2019-01-26 16:45;113,85
2019-01-26 17:00;111,9
2019-01-26 17:15;117,7
2019-01-26 17:30;116,55
2019-01-26 17:45;111,5
2019-01-26 18:00;111,95
2019-01-26 18:15;117,05
2019-01-26 18:30;117,4
2019-01-26 18:45;117,8
2019-01-26 19:00;118,95
2019-01-26 19:15;117,55
2019-01-26 19:30;120,6
2019-01-26 19:45;119
2019-01-26 20:00;113,9
2019-01-26 20:15;112,75
2019-01-26 20:30;114,45
2019-01-26 20:45;117,5
2019-01-26 21:00;117,95
2019-01-26 21:15;115,2
2019-01-26 21:30;113,2
2019-01-26 21:45;115,75
2019-01-26 22:00;110
2019-01-26 22:15;106,55
2019-01-26 22:30;106,35
2019-01-26 22:45;106,65
2019-01-26 23:00;111
2019-01-26 23:15;106,2
2019-01-26 23:30;107,45
2019-01-26 23:45;107,2
2019-01-27 00:00;94
2019-01-27 00:15;91,9
2019-01-27 00:30;92,5
2019-01-27 00:45;93,2
2019-01-27 01:00;91,35
2019-01-27 01:15;89,3
2019-01-27 01:30;90,4
2019-01-27 01:45;91,5
2019-01-27 02:00;91,15
2019-01-27 02:15;91,6
2019-01-27 02:30;91,05
2019-01-27 02:45;91,4
2019-01-27 03:00;90,65
2019-01-27 03:15;91,95
2019-01-27 03:30;89,05
2019-01-27 03:45;89,65
2019-01-27 04:00;89,15
2019-01-27 04:15;90,1
2019-01-27 04:30;88,65
2019-01-27 04:45;88,9
2019-01-27 05:00;90,85
2019-01-27 05:15;87
2019-01-27 05:30;86,45
2019-01-27 05:45;86,15
2019-01-27 06:00;89
2019-01-27 06:15;85,1
2019-01-27 06:30;83,45
2019-01-27 06:45;83,45
2019-01-27 07:00;82,15
2019-01-27 07:15;82,9
2019-01-27 07:30;80,25
2019-01-27 07:45;79,9
2019-01-27 08:00;80,1
2019-01-27 08:15;80,8
2019-01-27 08:30;80,45
2019-01-27 08:45;80,35
2019-01-27 09:00;82
2019-01-27 09:15;82,35
2019-01-27 09:30;81,55
2019-01-27 09:45;78,95
2019-01-27 10:00;78,95
2019-01-27 10:15;78,2
2019-01-27 10:30;80,6
2019-01-27 10:45;83,9
2019-01-27 11:00;84,7
2019-01-27 11:15;82,2
2019-01-27 11:30;85,7
2019-01-27 11:45;88,8
2019-01-27 12:00;87,95
2019-01-27 12:15;86,8
2019-01-27 12:30;89,8
2019-01-27 12:45;89,4
2019-01-27 13:00;92,35
2019-01-27 13:15;89,95
2019-01-27 13:30;89,4
2019-01-27 13:45;88,4
2019-01-27 14:00;92,25
2019-01-27 14:15;95,95
2019-01-27 14:30;98,95
2019-01-27 14:45;102,95
2019-01-27 15:00;102,6
2019-01-27 15:15;102,25
2019-01-27 15:30;103,45
2019-01-27 15:45;104,85
2019-01-27 16:00;109,2
2019-01-27 16:15;104,35
2019-01-27 16:30;104,15
2019-01-27 16:45;103,9
2019-01-27 17:00;99,7
2019-01-27 17:15;102,25
2019-01-27 17:30;105,45
2019-01-27 17:45;105
2019-01-27 18:00;103,75
2019-01-27 18:15;109,75
2019-01-27 18:30;108,8
2019-01-27 18:45;111,6
2019-01-27 19:00;112,1
2019-01-27 19:15;117,55
2019-01-27 19:30;117,65
2019-01-27 19:45;118,4
2019-01-27 20:00;119,1
2019-01-27 20:15;117,9
2019-01-27 20:30;112,4
2019-01-27 20:45;113,6
2019-01-27 21:00;113,35
2019-01-27 21:15;112,85
2019-01-27 21:30;108,7
2019-01-27 21:45;102,5
2019-01-27 22:00;103,05
2019-01-27 22:15;102,15
2019-01-27 22:30;106,15
2019-01-27 22:45;101,8
2019-01-27 23:00;108,65
2019-01-27 23:15;107,25
2019-01-27 23:30;110,65
2019-01-27 23:45;111,55

